Regional Weather Roundup
Issued by NWS

Home | Current Version | Previous Version | Text Only | Print | Product List | Glossary Off
Versions: 1 2 3 4 5 6 7 8 9 10 11 12 13 14 15 16 17 18 19 20 21 22 23 24 25 26 27 28 29 30 31 32 33 34 35 36 37 38 39 40 41 42 43 44 45 46 47 48 49 50

000
ASUS43 KDTX 190601
RWRMI
MICHIGAN HOURLY REGIONAL WEATHER ROUNDUP
NATIONAL WEATHER SERVICE DETROIT/PONTIAC MI
100 AM EST THU JAN 19 2017

NOTE: "FAIR" INDICATES FEW OR NO CLOUDS BELOW 12,000 FEET WITH NO
SIGNIFICANT WEATHER AND/OR OBSTRUCTION TO VISIBILITY.

MIZ047>049-052>055-059>063-066>070-074>076-081>083-190700-
SOUTHEAST LOWER MICHIGAN

CITY           SKY/WX    TMP DP  RH WIND       PRES   REMARKS
ADRIAN         CLOUDY    32  31  96 W7        30.08S WCI  26
6HR MIN TEMP:  32; 6HR MAX TEMP:  34;

ALMA           CLOUDY    34  32  92 SW12G17   30.01S WCI  25
6HR MIN TEMP:  34; 6HR MAX TEMP:  35;

ANN ARBOR      CLOUDY    32  31  96 SW7       30.04F WCI  26
BAD AXE        CLOUDY    33  33 100 W10G17    30.00R WCI  25
6HR MIN TEMP:  33; 6HR MAX TEMP:  35;

CARO           CLOUDY    34  32  93 SW9       29.99S WCI  26
DETROIT CITY   CLOUDY    34  32  93 SW15      30.04F WCI  24
DETROIT        CLOUDY    34  32  92 SW10      30.06F WCI  26
6HR MIN TEMP:  34; 6HR MAX TEMP:  38; 6HR PCP: TRACE;

FLINT          CLOUDY    33  30  88 W13       30.02F WCI  24
6HR MIN TEMP:  33; 6HR MAX TEMP:  37;

GROSSE ILE     CLOUDY    34  32  93 SW12      30.05F WCI  25
6HR MIN TEMP:  34; 6HR MAX TEMP:  37;

HILLSDALE      CLOUDY    32  32 100 SW7       30.04S FOG     WCI  26
HOWELL         CLOUDY    32  31  94 SW13      30.02F WCI  22

CITY           SKY/WX    TMP DP  RH WIND       PRES   REMARKS
JACKSON        CLOUDY    32  30  92 SW12      30.04S WCI  23
6HR MIN TEMP:  32; 6HR MAX TEMP:  34;

LAMBERTVILLE   CLOUDY    35  32  90 W9        30.07F WCI  28
6HR MIN TEMP:  35; 6HR MAX TEMP:  38;

LANSING        CLOUDY    33  29  85 SW10      30.03F WCI  25
6HR MIN TEMP:  33; 6HR MAX TEMP:  36;

LAPEER         CLOUDY    34  32  92 W12       30.01S WCI  26
6HR MIN TEMP:  34; 6HR MAX TEMP:  37;

MASON          CLOUDY    32  31  96 SW8       30.03F WCI  25
MONROE         CLOUDY    33  32  97 W13       30.05F WCI  24
6HR MIN TEMP:  33; 6HR MAX TEMP:  36;

MT. CLEMENS    CLOUDY    35  33  91 SW13      30.01F WCI  27
6HR MIN TEMP:  35; 6HR MAX TEMP:  40;

PONTIAC        CLOUDY    33  30  88 SW7       30.00F WCI  27
6HR MIN TEMP:  33; 6HR MAX TEMP:  37;

PORT HOPE        N/A     34  31  88 W7        29.98R WCI  28
6HR MIN TEMP:  34; 6HR MAX TEMP:  37;

PORT HURON     CLOUDY    34  32  93 SW7       30.02S WCI  28
TRI CITIES     CLOUDY    34  32  92 SW15      30.00S WCI  24
6HR MIN TEMP:  34; 6HR MAX TEMP:  36;

MIDLAND        CLOUDY    35  31  87 SW7       29.99R WCI  29
6HR MIN TEMP:  35; 6HR MAX TEMP:  37;

TROY           CLOUDY    35  31  87 SW8G16    30.05S WCI  28
SAGINAW HB     CLOUDY    34  32  93 SW7       30.00S WCI  28
$$
MIZ043>046-050>051-056>058-064>065-071>073-077>080-190700-
SOUTHWEST LOWER MICHIGAN

CITY           SKY/WX    TMP DP  RH WIND       PRES   REMARKS
BATTLE CREEK   CLOUDY    34  32  92 SW14      30.05S WCI  25
6HR MIN TEMP:  33; 6HR MAX TEMP:  34;

BENTON HARBOR  CLOUDY    36  32  85 SW9       30.06F WCI  29
6HR MIN TEMP:  35; 6HR MAX TEMP:  37;

BIG RAPIDS     CLOUDY    34  32  92 SW13G21   29.97F FOG     WCI  25
6HR MIN TEMP:  33; 6HR MAX TEMP:  34;

COLDWATER      CLOUDY    33  33 100 SW9       30.06S WCI  26
6HR MIN TEMP:  32; 6HR MAX TEMP:  34;

FREMONT        CLOUDY    35  33  94 SW10G20   30.00F WCI  27
HOLLAND        CLOUDY    36  33  89 SW13      30.04S WCI  27
6HR MIN TEMP:  35; 6HR MAX TEMP:  36;

GRAND RAPIDS   CLOUDY    34  30  85 SW13      30.03S WCI  25
6HR MIN TEMP:  33; 6HR MAX TEMP:  34;

IONIA          CLOUDY    32  31  95 SW10      30.02F WCI  24
6HR MIN TEMP:  32; 6HR MAX TEMP:  34;

KALAMAZOO      CLOUDY    35  30  82 MISG      30.06S
6HR MIN TEMP:  34; 6HR MAX TEMP:  35;

LUDINGTON      CLOUDY    35  34  96 SW13G18   29.98F FOG     WCI  26
6HR MIN TEMP:  34; 6HR MAX TEMP:  35;

MARSHALL       CLOUDY    33  32  96 SW12      30.04S WCI  24
6HR MIN TEMP:  32; 6HR MAX TEMP:  34;

MOUNT PLEASANT CLOUDY    35  32  90 SW10      29.98S WCI  27
6HR MIN TEMP:  34; 6HR MAX TEMP:  35;

MUSKEGON       CLOUDY    37  34  89 SW12      30.03F WCI  29
6HR MIN TEMP:  36; 6HR MAX TEMP:  37;

SOUTH HAVEN    CLOUDY    35  33  91 SW9G17    30.06S WCI  28
$$
MIZ016>042-190700-
NORTHERN LOWER MICHIGAN

CITY           SKY/WX    TMP DP  RH WIND       PRES   REMARKS
ALPENA         CLOUDY    35  31  85 SW5       29.95S WCI  31
6HR MIN TEMP:  34; 6HR MAX TEMP:  38;

BEAVER ISLAND  CLEAR     36  34  93 SW10      29.91S WCI  28
6HR MIN TEMP:  36; 6HR MAX TEMP:  37;

BELLAIRE       CLOUDY    35  32  89 S6        29.95S WCI  30
6HR MIN TEMP:  34; 6HR MAX TEMP:  36;

CADILLAC       CLOUDY    32  31  96 SW12      29.93F FOG     WCI  23
CHARLEVOIX     CLEAR     34  33  96 SW8       29.95S WCI  28
6HR MIN TEMP:  34; 6HR MAX TEMP:  35;

FRANKFORT      CLOUDY    37  35  94 S9        29.95F FOG     WCI  30
GAYLORD        CLOUDY    34  29  82 SW12      29.91F WCI  25
6HR MIN TEMP:  34; 6HR MAX TEMP:  36;

GRAYLING       CLOUDY    34  32  92 SW5       29.94S WCI  29
HARBOR SPRINGS CLOUDY    34  32  92 W3        29.92F
HOUGHTON LAKE  CLOUDY    33  30  88 W12       29.94S WCI  24
6HR MIN TEMP:  33; 6HR MAX TEMP:  34;

MANISTEE       CLOUDY    35  33  92 SW7       29.97S WCI  29
OSCODA         CLOUDY    35  32  90 SW5       29.96S WCI  31
6HR MIN TEMP:  35; 6HR MAX TEMP:  37;

PELLSTON       CLOUDY    36  31  82 SW9G17    29.92F WCI  29
6HR MIN TEMP:  36; 6HR MAX TEMP:  37;

ROGERS CITY    CLOUDY    36  32  87 SW5       29.94S WCI  32
TRAVERSE CITY  CLOUDY    36  31  82 VRB7      29.94S WCI  30
6HR MIN TEMP:  36; 6HR MAX TEMP:  36;

$$
MIZ007>008-015-190700-
EASTERN UPPER MICHIGAN

CITY           SKY/WX    TMP DP  RH WIND       PRES   REMARKS
KINROSS        CLOUDY    35  33  92 SW5       29.90S WCI  31
6HR MIN TEMP:  34; 6HR MAX TEMP:  35;

MACKINAC ISLAN CLOUDY    34  34 100 SW13G23   29.91S FOG     WCI  25
6HR MIN TEMP:  33; 6HR MAX TEMP:  34;

NEWBERRY       CLOUDY    32  31  97 SW9       29.87F FOG     WCI  24
6HR MIN TEMP:  31; 6HR MAX TEMP:  33;

S. S. MARIE    CLOUDY    35  31  85 CALM      29.90S
6HR MIN TEMP:  34; 6HR MAX TEMP:  36;

MUNISING         N/A     30  29  96 S6        29.86F WCI  24
6HR MIN TEMP:  29; 6HR MAX TEMP:  35;

$$
MIZ004>006-011>014-085-190700-
CENTRAL UPPER MICHIGAN

CITY           SKY/WX    TMP DP  RH WIND       PRES   REMARKS
MANISTIQUE     CLOUDY    31  31  98 CALM      29.88S FOG
6HR MIN TEMP:  31; 6HR MAX TEMP:  32;

ESCANABA       CLOUDY    28  27  96 CALM      29.89F FOG
6HR MIN TEMP:  27; 6HR MAX TEMP:  32;

SAWYER-GWINN   CLOUDY    27  26  98 S3        29.85S
6HR MIN TEMP:  20; 6HR MAX TEMP:  36;

$$
MIZ001>003-009>011-084-190700-
WESTERN UPPER MICHIGAN

CITY           SKY/WX    TMP DP  RH WIND       PRES   REMARKS
IRON MOUNTAIN  CLOUDY    21  19  92 CALM      29.84F FOG
6HR MIN TEMP:  21; 6HR MAX TEMP:  40;

HOUGHTON       CLOUDY    26  23  88 CALM      29.81S
6HR MIN TEMP:  20; 6HR MAX TEMP:  33;

COPPER HARBOR    N/A     30  27  88 VRB3      29.84R
6HR MIN TEMP:  28; 6HR MAX TEMP:  34;

IRONWOOD       CLEAR     33  29  85 CALM      29.82F
6HR MIN TEMP:  31; 6HR MAX TEMP:  40;

$$

ABBREVIATIONS USED IN REMARKS
   TC - TEMPERATURE IN CELSIUS
  WCI - WIND CHILL INDEX
   HX - HEAT INDEX
  VSB - VISIBILITY





USA.gov is the U.S. government's official web portal to all federal, state and local government web resources and services.